Location: Aufkirchen
(47.9603°N, 11.3653°E)
Time: 14:46:00
(UTC+01:00)

Courier 1B Rocket - Pass Details

Date: 30 November 2020
Orbit: 920 x 1202 km, 28.2° (Epoch: 17 January)

Event Time Altitude Azimuth Distance (km) Brightness Sun altitude
Rises 05:44:58 0° 220° (SW) 4,085 8.0 -18.9°
Reaches altitude 10° 05:49:26 10° 198° (SSW) 3,125 7.6 -18.2°
Maximum altitude 05:53:11 14° 169° (SSE) 2,803 7.7 -17.6°
Drops below altitude 10° 05:56:55 10° 139° (SE) 3,095 8.4 -17.0°
Sets 06:01:18 0° 117° (ESE) 4,020 9.8 -16.3°
